Boothville, LA

3:12 AM CST on December 15, 2017 (GMT -0600)
Boothville

Weather History for KBVE - May, 2013

Change the Weather History Date:

Tuesday, May 21, 2013

  Actual Average (KAXO) Record (KAXO)
Temperature  
Mean Temperature 77 °F -  
Max Temperature 82 °F 78 °F 89 °F (2012)
Min Temperature 72 °F 74 °F 66 °F (2002)
Cooling Degree Days 12    
Growing Degree Days 27 (Base 50)    
Moisture  
Dew Point 73 °F    
Average Humidity 84    
Maximum Humidity 97    
Minimum Humidity 69    
Precipitation  
Precipitation 0.00 in - - ()
Sea Level Pressure  
Sea Level Pressure 29.94 in    
Wind  
Wind Speed 8 mph (SE)    
Max Wind Speed 13 mph    
Max Gust Speed -    
Visibility 10 miles    
Events      
Averages and records for this station are not official NWS values.
T = Trace of Precipitation, MM = Missing Value Source: NWS Daily Summary

Daily Weather History Graph

Daily Weather History Graph

Search for Another Location

Airport or City:

Trip Planner

Search our weather history database for the weather conditions in past years. The results will help you decide how hot, cold, wet, or windy it might be!

Date:

Astronomy

May. 21, 2013 Rise Set
Actual Time 6:02 AM CDT 7:46 PM CDT
Civil Twilight 5:35 AM CDT 8:12 PM CDT
Nautical Twilight 5:04 AM CDT 8:44 PM CDT
Astronomical Twilight 4:30 AM CDT 9:18 PM CDT
Moon 4:14 PM CDT (5/21) 3:12 AM CDT (5/21)
Length of Visible Light 14h 37m
Length of Day
13h 44m
Waxing Gibbous, 84% of the Moon is Illuminated
May 21
Waxing Gibbous
May 24
Full
May 31
Last Quarter
Jun 8
New
Jun 16
First Quarter

Hourly Weather History & Observations

Time (CDT) Temp. Heat Index Dew Point Humidity Pressure Visibility Wind Dir Wind Speed Gust Speed Precip Events Conditions
12:51 AM 73.9 °F - 73.0 °F 97% 29.98 in 10.0 mi ESE 8.1 mph - N/A   Partly Cloudy
1:51 AM 73.9 °F - 73.0 °F 97% 29.96 in 10.0 mi ESE 5.8 mph - N/A   Clear
2:51 AM 73.9 °F - 73.0 °F 97% 29.95 in 10.0 mi SE 8.1 mph - N/A   Clear
3:51 AM 73.9 °F - 73.0 °F 97% 29.94 in 10.0 mi SE 6.9 mph - N/A   Clear
4:51 AM 73.0 °F - 72.0 °F 96% 29.94 in 10.0 mi ESE 4.6 mph - N/A   Clear
5:51 AM 72.0 °F - 71.1 °F 97% 29.95 in 10.0 mi SE 3.5 mph - N/A   Clear
6:51 AM 73.9 °F - 72.0 °F 93% 29.96 in 10.0 mi Calm Calm - N/A   Clear
7:51 AM 77.0 °F - 73.0 °F 88% 29.97 in 10.0 mi South 10.4 mph - N/A   Clear
8:51 AM 79.0 °F - 72.0 °F 79% 29.99 in 10.0 mi South 8.1 mph - N/A   Clear
9:51 AM 80.1 °F 83.6 °F 71.1 °F 74% 29.99 in 10.0 mi South 9.2 mph - N/A   Clear
10:51 AM 81.0 °F 84.9 °F 71.1 °F 72% 29.99 in 10.0 mi South 9.2 mph - N/A   Clear
11:51 AM 82.0 °F 86.7 °F 72.0 °F 71% 29.98 in 10.0 mi SSE 11.5 mph - N/A   Partly Cloudy
12:16 PM 82.4 °F 87.2 °F 71.6 °F 70% 29.99 in 10.0 mi SE 9.2 mph - N/A   Mostly Cloudy
12:51 PM 82.0 °F 86.7 °F 72.0 °F 71% 29.97 in 10.0 mi ESE 9.2 mph - N/A   Mostly Cloudy
1:51 PM 82.0 °F 86.3 °F 71.1 °F 69% 29.97 in 10.0 mi SSE 11.5 mph - N/A   Overcast
2:21 PM 82.4 °F 87.2 °F 71.6 °F 70% 29.96 in 10.0 mi SE 10.4 mph - N/A   Mostly Cloudy
2:37 PM 82.4 °F 88.2 °F 73.4 °F 74% 29.96 in 10.0 mi SSE 11.5 mph - N/A   Mostly Cloudy
2:51 PM 82.9 °F 88.8 °F 73.0 °F 72% 29.96 in 10.0 mi SSE 11.5 mph - N/A   Mostly Cloudy
3:46 PM 82.4 °F 88.2 °F 73.4 °F 74% 29.94 in 10.0 mi SSE 10.4 mph - N/A   Mostly Cloudy
3:51 PM 82.0 °F 87.4 °F 73.0 °F 74% 29.94 in 10.0 mi SE 12.7 mph - N/A   Mostly Cloudy
4:00 PM 80.6 °F 85.4 °F 73.4 °F 79% 29.94 in 10.0 mi SE 8.1 mph - N/A   Mostly Cloudy
4:51 PM 82.0 °F 87.9 °F 73.9 °F 76% 29.93 in 10.0 mi SE 8.1 mph - N/A   Overcast
5:32 PM 80.6 °F 85.4 °F 73.4 °F 79% 29.92 in 10.0 mi SE 9.2 mph - N/A   Mostly Cloudy
5:51 PM 80.1 °F 84.2 °F 73.0 °F 79% 29.91 in 10.0 mi SE 8.1 mph - N/A   Mostly Cloudy
6:47 PM 78.8 °F - 73.4 °F 83% 29.89 in 10.0 mi SE 10.4 mph - N/A   Mostly Cloudy
6:51 PM 79.0 °F - 73.0 °F 82% 29.89 in 10.0 mi SE 10.4 mph - N/A   Mostly Cloudy
7:06 PM 78.8 °F - 73.4 °F 83% 29.88 in 10.0 mi SE 10.4 mph - N/A   Scattered Clouds
7:51 PM 75.9 °F - 73.0 °F 91% 29.88 in 10.0 mi SE 9.2 mph - N/A   Partly Cloudy
8:15 PM 75.2 °F - 73.4 °F 94% 29.89 in 10.0 mi SE 8.1 mph - N/A   Mostly Cloudy
8:34 PM 75.2 °F - 73.4 °F 94% 29.89 in 10.0 mi SE 8.1 mph - N/A   Mostly Cloudy
8:48 PM 75.2 °F - 73.4 °F 94% 29.89 in 10.0 mi ESE 6.9 mph - N/A   Partly Cloudy
8:51 PM 75.9 °F - 73.9 °F 94% 29.89 in 10.0 mi SE 6.9 mph - N/A   Partly Cloudy
9:51 PM 75.9 °F - 73.9 °F 94% 29.91 in 10.0 mi SE 6.9 mph - N/A   Scattered Clouds
10:51 PM 75.0 °F - 73.0 °F 94% 29.94 in 10.0 mi ESE 3.5 mph - N/A   Clear
11:51 PM 75.0 °F - 73.0 °F 94% 29.93 in 10.0 mi SE 4.6 mph - N/A   Clear